GWI4HF LGIR-EDDK

Flight info

Callsign GWI4HF
Flight time 3h 17m
Altitude 38000
Route EPALO UM749 ATV DCT TALAS DCT LONTA UM749 UDVAR DCT NANER DCT BABIT DCT ARSIN DCT DITIS DCT RAPET T843 VELIS/N0419F320 DCT MASEK T841 ERNEP ERNEP1F
Aircraft A319/M-SDE3FGHIRWY/LB1

Departure

Time 2026-05-01 11:34
Airport Heraklion International Nikos Kazantzakis Airport (LGIR)

Arrival

Time 2026-05-01 14:52
Airport Cologne Bonn Airport (EDDK)
Time Latitude Longitude Altitude Speed Heading
2026-05-01 11:04 35.33807 25.17548 128 ft 0 kts 310°
2026-05-01 11:29 35.33834 25.17515 128 ft 6 kts 315°
2026-05-01 11:30 35.33888 25.17505 128 ft 9 kts
2026-05-01 11:30 35.33905 25.17578 128 ft 10 kts 95°
2026-05-01 11:30 35.33898 25.17679 128 ft 13 kts 94°
2026-05-01 11:30 35.33889 25.17804 128 ft 15 kts 95°
2026-05-01 11:31 35.33879 25.17950 128 ft 18 kts 94°
2026-05-01 11:31 35.33868 25.18116 128 ft 20 kts 94°
2026-05-01 11:31 35.33854 25.18297 129 ft 22 kts 94°
2026-05-01 11:31 35.33842 25.18494 129 ft 23 kts 96°
2026-05-01 11:32 35.33828 25.18689 129 ft 23 kts 95°
2026-05-01 11:32 35.33817 25.18844 129 ft 7 kts 94°
2026-05-01 11:32 35.33816 25.18861 129 ft 0 kts 94°
2026-05-01 11:32 35.33815 25.18872 129 ft 5 kts 95°
2026-05-01 11:33 35.33823 25.18941 129 ft 10 kts 57°
2026-05-01 11:33 35.33872 25.19030 129 ft 11 kts 58°
2026-05-01 11:33 35.33907 25.19015 129 ft 9 kts 275°
2026-05-01 11:33 35.33917 25.18885 129 ft 36 kts 275°
2026-05-01 11:34 35.33960 25.18253 129 ft 110 kts 276°
2026-05-01 11:34 35.34056 25.17060 199 ft 162 kts 280°
2026-05-01 11:34 35.34202 25.15708 833 ft 163 kts 284°
2026-05-01 11:34 35.34689 25.14516 1494 ft 159 kts 327°
2026-05-01 11:35 35.35698 25.14043 2127 ft 162 kts 349°
2026-05-01 11:35 35.36851 25.13755 2615 ft 178 kts 351°
2026-05-01 11:35 35.38131 25.13443 3157 ft 193 kts 349°
2026-05-01 11:35 35.39475 25.13059 3683 ft 209 kts 345°
2026-05-01 11:36 35.40927 25.12566 4201 ft 226 kts 344°
2026-05-01 11:36 35.42500 25.12031 4719 ft 244 kts 343°
2026-05-01 11:36 35.44182 25.11401 5283 ft 261 kts 341°
2026-05-01 11:36 35.45954 25.10719 6040 ft 270 kts 340°
2026-05-01 11:37 35.47728 25.10042 6914 ft 274 kts 339°
2026-05-01 11:37 35.49552 25.09348 7811 ft 276 kts 339°
2026-05-01 11:37 35.51371 25.08657 8693 ft 278 kts 339°
2026-05-01 11:37 35.53228 25.07954 9579 ft 281 kts 338°
2026-05-01 11:38 35.55106 25.07246 10431 ft 283 kts 338°
2026-05-01 11:38 35.57017 25.06518 10977 ft 297 kts 338°
2026-05-01 11:38 35.59058 25.05741 11444 ft 313 kts 338°
2026-05-01 11:38 35.61137 25.04956 12179 ft 319 kts 338°
2026-05-01 11:39 35.63096 25.04220 12921 ft 321 kts 338°
2026-05-01 11:39 35.65242 25.03412 13705 ft 323 kts 338°
2026-05-01 11:39 35.67388 25.02603 14441 ft 326 kts 337°
2026-05-01 11:39 35.69601 25.01767 15141 ft 330 kts 337°
2026-05-01 11:40 35.71784 25.00906 15822 ft 332 kts 335°
2026-05-01 11:40 35.73947 24.99918 16512 ft 334 kts 333°
2026-05-01 11:40 35.76120 24.98899 17163 ft 337 kts 333°
2026-05-01 11:40 35.78343 24.97852 17797 ft 341 kts 333°
2026-05-01 11:41 35.80537 24.96817 18423 ft 343 kts 332°
2026-05-01 11:41 35.82790 24.95756 19068 ft 345 kts 332°
2026-05-01 11:41 35.85026 24.94703 19704 ft 347 kts 332°
2026-05-01 11:41 35.87272 24.93644 20334 ft 348 kts 332°
2026-05-01 11:42 35.89542 24.92574 20952 ft 350 kts 332°
2026-05-01 11:42 35.91797 24.91511 21542 ft 351 kts 331°
2026-05-01 11:42 35.94108 24.90419 22113 ft 353 kts 331°
2026-05-01 11:42 35.96384 24.89344 22679 ft 355 kts 331°
2026-05-01 11:43 35.98703 24.88247 23230 ft 356 kts 331°
2026-05-01 11:43 36.01029 24.87145 23763 ft 358 kts 330°
2026-05-01 11:43 36.03344 24.86048 24284 ft 360 kts 330°
2026-05-01 11:44 36.08060 24.83814 25260 ft 365 kts 330°
2026-05-01 11:44 36.10422 24.82696 25733 ft 367 kts 330°
2026-05-01 11:44 36.12819 24.81562 26210 ft 369 kts 330°
2026-05-01 11:44 36.15214 24.80426 26609 ft 372 kts 330°
2026-05-01 11:45 36.17648 24.79267 26869 ft 379 kts 330°
2026-05-01 11:45 36.20142 24.78082 27225 ft 382 kts 330°
2026-05-01 11:45 36.22622 24.76905 27630 ft 384 kts 330°
2026-05-01 11:45 36.25112 24.75722 28035 ft 386 kts 330°
2026-05-01 11:46 36.27551 24.74564 28410 ft 388 kts 330°
2026-05-01 11:46 36.30059 24.73371 28781 ft 390 kts 330°
2026-05-01 11:46 36.32608 24.72156 29155 ft 391 kts 330°
2026-05-01 11:46 36.35149 24.70945 29535 ft 392 kts 330°
2026-05-01 11:47 36.37651 24.69751 29869 ft 394 kts 330°
2026-05-01 11:47 36.40204 24.68531 30223 ft 396 kts 330°
2026-05-01 11:47 36.42784 24.67299 30566 ft 397 kts 330°
2026-05-01 11:47 36.45343 24.66077 30995 ft 396 kts 330°
2026-05-01 11:48 36.47896 24.64858 31457 ft 393 kts 330°
2026-05-01 11:48 36.50446 24.63637 31904 ft 391 kts 329°
2026-05-01 11:48 36.52995 24.62418 32309 ft 390 kts 329°
2026-05-01 11:48 36.55390 24.61269 32674 ft 389 kts 329°
2026-05-01 11:49 36.57898 24.60064 33057 ft 388 kts 329°
2026-05-01 11:49 36.60418 24.58853 33421 ft 387 kts 329°
2026-05-01 11:49 36.62928 24.57646 33787 ft 386 kts 329°
2026-05-01 11:49 36.65429 24.56443 34128 ft 385 kts 329°
2026-05-01 11:50 36.67909 24.55250 34400 ft 384 kts 329°
2026-05-01 11:50 36.70420 24.54038 34682 ft 384 kts 329°
2026-05-01 11:50 36.72889 24.52846 34944 ft 383 kts 328°
2026-05-01 11:50 36.75310 24.51562 35178 ft 379 kts 326°
2026-05-01 11:51 36.77693 24.50138 35419 ft 377 kts 324°
2026-05-01 11:51 36.80056 24.48690 35638 ft 377 kts 324°
2026-05-01 11:51 36.82381 24.47253 35825 ft 378 kts 324°
2026-05-01 11:51 36.84767 24.45779 36059 ft 378 kts 324°
2026-05-01 11:52 36.87098 24.44338 36318 ft 377 kts 324°
2026-05-01 11:52 36.89449 24.42886 36567 ft 377 kts 324°
2026-05-01 11:52 36.91813 24.41421 36801 ft 377 kts 324°
2026-05-01 11:52 36.94154 24.39973 37024 ft 377 kts 324°
2026-05-01 11:53 36.96483 24.38528 37228 ft 377 kts 324°
2026-05-01 11:53 36.98832 24.37071 37393 ft 377 kts 324°
2026-05-01 11:53 37.01196 24.35605 37536 ft 379 kts 324°
2026-05-01 11:53 37.03592 24.34115 37691 ft 380 kts 323°
2026-05-01 11:54 37.05938 24.32658 37849 ft 380 kts 323°
2026-05-01 11:54 37.08305 24.31185 37963 ft 382 kts 323°
2026-05-01 11:54 37.10689 24.29702 38074 ft 384 kts 323°
2026-05-01 11:54 37.13102 24.28196 38083 ft 384 kts 323°
2026-05-01 11:55 37.17887 24.25214 38085 ft 384 kts 323°
2026-05-01 11:55 37.22646 24.22245 38081 ft 384 kts 323°
2026-05-01 11:56 37.27439 24.19249 38076 ft 385 kts 323°
2026-05-01 11:56 37.32184 24.16279 38082 ft 386 kts 323°
2026-05-01 11:57 37.36976 24.13275 38097 ft 386 kts 323°
2026-05-01 11:57 37.41794 24.10249 38088 ft 386 kts 323°
2026-05-01 11:58 37.46565 24.07249 38090 ft 386 kts 323°
2026-05-01 11:59 37.53682 24.02766 38097 ft 386 kts 323°
2026-05-01 11:59 37.58429 23.99771 38095 ft 387 kts 323°
2026-05-01 12:00 37.65664 23.95197 38093 ft 388 kts 323°
2026-05-01 12:01 37.72877 23.90623 38118 ft 388 kts 323°
2026-05-01 12:01 37.77693 23.87568 38113 ft 387 kts 323°
2026-05-01 12:02 37.82507 23.84508 38095 ft 387 kts 323°
2026-05-01 12:02 37.87303 23.81453 38118 ft 389 kts 323°
2026-05-01 12:03 37.92265 23.78534 38117 ft 393 kts 325°
2026-05-01 12:03 37.97249 23.75726 38122 ft 394 kts 325°
2026-05-01 12:04 38.02050 23.73016 38137 ft 393 kts 326°
2026-05-01 12:04 38.06904 23.70269 38101 ft 394 kts 326°
2026-05-01 12:05 38.11907 23.67431 38127 ft 395 kts 326°
2026-05-01 12:05 38.19444 23.63155 38117 ft 396 kts 326°
2026-05-01 12:06 38.24449 23.60308 38134 ft 396 kts 326°
2026-05-01 12:06 38.29489 23.57434 38140 ft 396 kts 326°
2026-05-01 12:07 38.34518 23.54567 38136 ft 397 kts 326°
2026-05-01 12:07 38.39584 23.51669 38131 ft 397 kts 327°
2026-05-01 12:08 38.44603 23.48795 38137 ft 398 kts 327°
2026-05-01 12:08 38.49662 23.45898 38131 ft 398 kts 327°
2026-05-01 12:09 38.54626 23.43047 38143 ft 400 kts 327°
2026-05-01 12:09 38.59686 23.40138 38149 ft 399 kts 327°
2026-05-01 12:10 38.67274 23.35766 38154 ft 399 kts 327°
2026-05-01 12:11 38.74863 23.31383 38153 ft 400 kts 327°
2026-05-01 12:11 38.79762 23.28549 38160 ft 401 kts 327°
2026-05-01 12:12 38.84861 23.25595 38162 ft 401 kts 327°
2026-05-01 12:12 38.89819 23.22714 38173 ft 401 kts 327°
2026-05-01 12:13 38.94912 23.19754 38168 ft 402 kts 328°
2026-05-01 12:13 38.99988 23.16799 38169 ft 404 kts 328°
2026-05-01 12:14 39.04995 23.13879 38175 ft 404 kts 328°
2026-05-01 12:14 39.10276 23.10796 38181 ft 405 kts 328°
2026-05-01 12:15 39.15503 23.07738 38188 ft 405 kts 328°
2026-05-01 12:15 39.20753 23.04661 38198 ft 406 kts 328°
2026-05-01 12:16 39.26016 23.01574 38201 ft 406 kts 328°
2026-05-01 12:16 39.31364 22.98427 38199 ft 405 kts 328°
2026-05-01 12:17 39.36648 22.95316 38193 ft 406 kts 328°
2026-05-01 12:17 39.41830 22.92260 38184 ft 407 kts 328°
2026-05-01 12:18 39.47044 22.89178 38182 ft 408 kts 328°
2026-05-01 12:18 39.52292 22.86072 38179 ft 408 kts 329°
2026-05-01 12:19 39.57546 22.82956 38180 ft 408 kts 329°
2026-05-01 12:19 39.62843 22.79810 38186 ft 407 kts 329°
2026-05-01 12:20 39.68005 22.76742 38178 ft 409 kts 329°
2026-05-01 12:20 39.73026 22.73748 38168 ft 409 kts 329°
2026-05-01 12:21 39.78183 22.70672 38163 ft 409 kts 329°
2026-05-01 12:21 39.83282 22.67621 38174 ft 410 kts 329°
2026-05-01 12:22 39.88541 22.64474 38181 ft 411 kts 329°
2026-05-01 12:22 39.93809 22.61314 38188 ft 411 kts 330°
2026-05-01 12:23 39.99060 22.58161 38190 ft 412 kts 329°
2026-05-01 12:23 40.04430 22.54929 38187 ft 411 kts 330°
2026-05-01 12:24 40.09745 22.51724 38183 ft 412 kts 330°
2026-05-01 12:24 40.15006 22.48547 38192 ft 413 kts 330°
2026-05-01 12:25 40.22961 22.43733 38186 ft 413 kts 330°
2026-05-01 12:26 40.28257 22.40521 38177 ft 413 kts 330°
2026-05-01 12:26 40.35949 22.35845 38171 ft 414 kts 330°
2026-05-01 12:27 40.43811 22.31055 38186 ft 414 kts 330°
2026-05-01 12:28 40.51725 22.26217 38195 ft 414 kts 330°
2026-05-01 12:29 40.59723 22.21319 38195 ft 415 kts 330°
2026-05-01 12:29 40.67742 22.16395 38188 ft 416 kts 330°
2026-05-01 12:30 40.75700 22.11493 38188 ft 416 kts 330°
2026-05-01 12:31 40.80971 22.08239 38188 ft 416 kts 330°
2026-05-01 12:31 40.86132 22.05047 38184 ft 417 kts 330°
2026-05-01 12:32 40.91317 22.01837 38183 ft 417 kts 330°
2026-05-01 12:32 40.99342 21.96854 38184 ft 418 kts 331°
2026-05-01 12:33 41.04634 21.93558 38181 ft 418 kts 331°
2026-05-01 12:33 41.10040 21.90551 38159 ft 420 kts 336°
2026-05-01 12:34 41.15533 21.87946 38153 ft 420 kts 336°
2026-05-01 12:34 41.20919 21.85408 38145 ft 420 kts 336°
2026-05-01 12:35 41.26273 21.82874 38143 ft 420 kts 336°
2026-05-01 12:35 41.31757 21.80273 38143 ft 421 kts 336°
2026-05-01 12:36 41.37031 21.77766 38148 ft 420 kts 336°
2026-05-01 12:36 41.42529 21.75147 38155 ft 420 kts 336°
2026-05-01 12:37 41.48028 21.72524 38158 ft 420 kts 337°
2026-05-01 12:37 41.53538 21.69890 38160 ft 420 kts 337°
2026-05-01 12:38 41.59035 21.67259 38164 ft 421 kts 337°
2026-05-01 12:38 41.64429 21.64671 38160 ft 421 kts 337°
2026-05-01 12:39 41.69938 21.62024 38161 ft 420 kts 337°
2026-05-01 12:39 41.75418 21.59386 38164 ft 421 kts 337°
2026-05-01 12:40 41.80940 21.56724 38168 ft 421 kts 337°
2026-05-01 12:40 41.86433 21.54070 38186 ft 421 kts 337°
2026-05-01 12:41 41.91811 21.51466 38191 ft 421 kts 337°
2026-05-01 12:41 41.97308 21.48801 38194 ft 421 kts 337°
2026-05-01 12:42 42.02810 21.46128 38196 ft 421 kts 337°
2026-05-01 12:42 42.08322 21.43441 38197 ft 421 kts 338°
2026-05-01 12:43 42.13844 21.40749 38190 ft 421 kts 338°
2026-05-01 12:43 42.19458 21.38419 38186 ft 423 kts 342°
2026-05-01 12:44 42.25024 21.36372 38177 ft 423 kts 342°
2026-05-01 12:45 42.36374 21.32197 38191 ft 421 kts 342°
2026-05-01 12:45 42.42002 21.30115 38196 ft 422 kts 342°
2026-05-01 12:46 42.47674 21.28014 38201 ft 421 kts 342°
2026-05-01 12:46 42.53276 21.25935 38206 ft 421 kts 342°
2026-05-01 12:47 42.58841 21.23866 38204 ft 422 kts 342°
2026-05-01 12:47 42.64493 21.21761 38206 ft 421 kts 342°
2026-05-01 12:48 42.70114 21.19660 38210 ft 422 kts 342°
2026-05-01 12:48 42.75782 21.17540 38207 ft 422 kts 343°
2026-05-01 12:49 42.81444 21.15418 38204 ft 422 kts 343°
2026-05-01 12:49 42.87062 21.13310 38202 ft 422 kts 343°
2026-05-01 12:50 42.92742 21.11172 38190 ft 422 kts 343°
2026-05-01 12:50 42.98377 21.09049 38174 ft 422 kts 343°
2026-05-01 12:51 43.03950 21.06945 38164 ft 423 kts 343°
2026-05-01 12:52 43.12273 21.03221 38172 ft 421 kts 336°
2026-05-01 12:52 43.20084 20.97977 38190 ft 421 kts 332°
2026-05-01 12:53 43.27822 20.92400 38198 ft 420 kts 332°
2026-05-01 12:54 43.32988 20.88671 38203 ft 420 kts 332°
2026-05-01 12:54 43.40748 20.83058 38200 ft 420 kts 332°
2026-05-01 12:55 43.48489 20.77447 38189 ft 420 kts 332°
2026-05-01 12:56 43.53633 20.73706 38200 ft 419 kts 333°
2026-05-01 12:56 43.58653 20.70051 38221 ft 420 kts 333°
2026-05-01 12:57 43.63723 20.66350 38244 ft 419 kts 333°
2026-05-01 12:57 43.71453 20.60697 38254 ft 419 kts 333°
2026-05-01 12:58 43.76585 20.56935 38259 ft 419 kts 333°
2026-05-01 12:59 43.84164 20.51363 38272 ft 419 kts 333°
2026-05-01 12:59 43.91844 20.45705 38268 ft 418 kts 333°
2026-05-01 13:00 43.99589 20.40049 38265 ft 418 kts 334°
2026-05-01 13:01 44.07294 20.34409 38259 ft 418 kts 333°
2026-05-01 13:02 44.15009 20.28741 38263 ft 418 kts 333°
2026-05-01 13:07 44.70990 19.87090 38264 ft 418 kts 334°
2026-05-01 13:08 44.76114 19.83232 38269 ft 418 kts 334°
2026-05-01 13:08 44.81210 19.79387 38267 ft 419 kts 334°
2026-05-01 13:09 44.86227 19.75595 38264 ft 419 kts 334°
2026-05-01 13:09 44.91349 19.71713 38265 ft 418 kts 335°
2026-05-01 13:10 44.96444 19.67845 38269 ft 417 kts 335°
2026-05-01 13:10 45.01580 19.63936 38278 ft 417 kts 335°
2026-05-01 13:11 45.06666 19.60062 38282 ft 418 kts 335°
2026-05-01 13:11 45.11785 19.56152 38278 ft 417 kts 335°
2026-05-01 13:12 45.16900 19.52238 38291 ft 417 kts 335°
2026-05-01 13:12 45.21968 19.48350 38290 ft 416 kts 335°
2026-05-01 13:13 45.27039 19.44453 38291 ft 416 kts 335°
2026-05-01 13:13 45.32144 19.40524 38288 ft 416 kts 335°
2026-05-01 13:14 45.37206 19.36617 38286 ft 416 kts 335°
2026-05-01 13:14 45.42155 19.32787 38295 ft 416 kts 335°
2026-05-01 13:15 45.47226 19.28860 38293 ft 414 kts 335°
2026-05-01 13:15 45.52287 19.24932 38297 ft 414 kts 335°
2026-05-01 13:16 45.57354 19.20989 38293 ft 415 kts 335°
2026-05-01 13:16 45.62325 19.17111 38294 ft 414 kts 336°
2026-05-01 13:17 45.72322 19.09297 38289 ft 413 kts 336°
2026-05-01 13:18 45.79870 19.03373 38296 ft 413 kts 335°
2026-05-01 13:18 45.84908 18.99406 38308 ft 414 kts 336°
2026-05-01 13:19 45.89940 18.95352 38295 ft 414 kts 334°
2026-05-01 13:20 45.96953 18.88039 38319 ft 421 kts 325°
2026-05-01 13:20 46.01218 18.82626 38280 ft 421 kts 324°
2026-05-01 13:21 46.07751 18.74236 38304 ft 421 kts 324°
2026-05-01 13:21 46.12103 18.68636 38298 ft 421 kts 325°
2026-05-01 13:22 46.16486 18.62993 38297 ft 421 kts 324°
2026-05-01 13:22 46.20843 18.57368 38296 ft 420 kts 324°
2026-05-01 13:23 46.25202 18.51731 38303 ft 420 kts 325°
2026-05-01 13:23 46.29546 18.46095 38312 ft 420 kts 325°
2026-05-01 13:24 46.33868 18.40478 38320 ft 419 kts 325°
2026-05-01 13:25 46.40347 18.32033 38306 ft 420 kts 324°
2026-05-01 13:25 46.44689 18.26363 38307 ft 420 kts 324°
2026-05-01 13:26 46.49033 18.20673 38325 ft 420 kts 324°
2026-05-01 13:26 46.53334 18.15024 38322 ft 419 kts 324°
2026-05-01 13:27 46.57665 18.09325 38327 ft 420 kts 325°
2026-05-01 13:27 46.64115 18.00817 38314 ft 419 kts 325°
2026-05-01 13:28 46.70352 17.92560 38322 ft 418 kts 325°
2026-05-01 13:29 46.78782 17.81357 38303 ft 418 kts 325°
2026-05-01 13:31 46.91524 17.64332 38327 ft 417 kts 325°
2026-05-01 13:32 47.02081 17.50137 38342 ft 416 kts 325°
2026-05-01 13:33 47.12701 17.35779 38320 ft 416 kts 325°
2026-05-01 13:34 47.21221 17.24201 38317 ft 417 kts 324°
2026-05-01 13:35 47.27593 17.15502 38321 ft 416 kts 324°
2026-05-01 13:36 47.33770 17.07048 38320 ft 416 kts 324°
2026-05-01 13:36 47.39911 16.98607 38321 ft 416 kts 324°
2026-05-01 13:37 47.44118 16.92814 38315 ft 417 kts 324°
2026-05-01 13:37 47.48360 16.86957 38321 ft 416 kts 324°
2026-05-01 13:38 47.54673 16.78210 38332 ft 416 kts 324°
2026-05-01 13:39 47.59009 16.72632 38314 ft 412 kts 328°
2026-05-01 13:39 47.63483 16.67302 38306 ft 412 kts 328°
2026-05-01 13:40 47.67948 16.61983 38310 ft 413 kts 328°
2026-05-01 13:40 47.72407 16.56651 38309 ft 412 kts 328°
2026-05-01 13:41 47.76786 16.51402 38307 ft 413 kts 328°
2026-05-01 13:41 47.81229 16.46062 38319 ft 412 kts 328°
2026-05-01 13:42 47.85688 16.40691 38315 ft 413 kts 328°
2026-05-01 13:42 47.90147 16.35306 38311 ft 413 kts 328°
2026-05-01 13:43 47.94599 16.29919 38317 ft 414 kts 327°
2026-05-01 13:43 47.99063 16.24505 38323 ft 414 kts 327°
2026-05-01 13:44 48.03380 16.19256 38318 ft 414 kts 327°
2026-05-01 13:44 48.07827 16.13836 38317 ft 413 kts 327°
2026-05-01 13:45 48.12267 16.08411 38320 ft 414 kts 327°
2026-05-01 13:45 48.16715 16.02968 38318 ft 414 kts 327°
2026-05-01 13:46 48.20971 15.97747 38315 ft 414 kts 327°
2026-05-01 13:46 48.25417 15.92278 38313 ft 414 kts 327°
2026-05-01 13:47 48.29858 15.86803 38312 ft 415 kts 327°
2026-05-01 13:47 48.34307 15.81307 38312 ft 414 kts 327°
2026-05-01 13:48 48.38737 15.75821 38320 ft 415 kts 327°
2026-05-01 13:48 48.43086 15.70425 38311 ft 415 kts 327°
2026-05-01 13:49 48.47545 15.64880 38309 ft 415 kts 326°
2026-05-01 13:49 48.51959 15.59371 38305 ft 414 kts 326°
2026-05-01 13:50 48.56390 15.53833 38305 ft 415 kts 326°
2026-05-01 13:50 48.60834 15.48263 38304 ft 415 kts 326°
2026-05-01 13:51 48.65169 15.42820 38310 ft 414 kts 326°
2026-05-01 13:51 48.69600 15.37243 38309 ft 415 kts 326°
2026-05-01 13:52 48.74015 15.31675 38310 ft 415 kts 325°
2026-05-01 13:52 48.78458 15.26051 38309 ft 416 kts 325°
2026-05-01 13:53 48.82887 15.20435 38313 ft 416 kts 325°
2026-05-01 13:53 48.89360 15.11567 38313 ft 420 kts 319°
2026-05-01 13:54 48.93152 15.04791 38313 ft 425 kts 313°
2026-05-01 13:54 48.96521 14.97920 38316 ft 425 kts 311°
2026-05-01 13:55 48.99990 14.90770 38317 ft 424 kts 311°
2026-05-01 13:55 49.03322 14.83896 38318 ft 424 kts 311°
2026-05-01 13:56 49.06827 14.76652 38317 ft 424 kts 311°
2026-05-01 13:56 49.10305 14.69453 38319 ft 424 kts 311°
2026-05-01 13:57 49.13180 14.63484 38318 ft 425 kts 311°
2026-05-01 13:57 49.17269 14.54974 38319 ft 424 kts 311°
2026-05-01 13:58 49.20752 14.47700 38319 ft 424 kts 311°
2026-05-01 13:58 49.24208 14.40470 38316 ft 424 kts 311°
2026-05-01 13:59 49.27676 14.33190 38315 ft 424 kts 310°
2026-05-01 13:59 49.31137 14.25909 38320 ft 424 kts 310°
2026-05-01 14:00 49.34586 14.18629 38322 ft 424 kts 310°
2026-05-01 14:00 49.37993 14.11419 38323 ft 424 kts 310°
2026-05-01 14:01 49.41432 14.04122 38324 ft 424 kts 310°
2026-05-01 14:01 49.44730 13.97105 38432 ft 424 kts 310°
2026-05-01 14:02 49.48190 13.89727 38354 ft 424 kts 310°
2026-05-01 14:02 49.51615 13.82399 38338 ft 423 kts 310°
2026-05-01 14:03 49.55036 13.75061 38341 ft 423 kts 310°
2026-05-01 14:03 49.58445 13.67729 38340 ft 423 kts 310°
2026-05-01 14:04 49.61871 13.60341 38340 ft 423 kts 309°
2026-05-01 14:04 49.64706 13.54209 38344 ft 423 kts 309°
2026-05-01 14:05 49.68684 13.45582 38345 ft 423 kts 309°
2026-05-01 14:05 49.72095 13.38165 38345 ft 423 kts 309°
2026-05-01 14:06 49.75485 13.30774 38349 ft 423 kts 308°
2026-05-01 14:06 49.78885 13.23337 38332 ft 423 kts 308°
2026-05-01 14:07 49.82271 13.15909 38332 ft 423 kts 308°
2026-05-01 14:08 49.87350 13.04730 38328 ft 422 kts 308°
2026-05-01 14:08 49.90548 12.97666 38325 ft 423 kts 308°
2026-05-01 14:09 49.93908 12.90226 38328 ft 423 kts 308°
2026-05-01 14:09 49.97295 12.82705 38329 ft 423 kts 308°
2026-05-01 14:10 50.00642 12.75249 38333 ft 423 kts 308°
2026-05-01 14:10 50.03998 12.67753 38332 ft 422 kts 308°
2026-05-01 14:11 50.07347 12.60250 38333 ft 422 kts 308°
2026-05-01 14:11 50.12347 12.49009 38330 ft 422 kts 308°
2026-05-01 14:12 50.15604 12.41375 38325 ft 423 kts 304°
2026-05-01 14:12 50.18342 12.33177 38326 ft 426 kts 296°
2026-05-01 14:13 50.20128 12.25995 38330 ft 428 kts 291°
2026-05-01 14:13 50.21937 12.15566 38336 ft 429 kts 286°
2026-05-01 14:14 50.23352 12.06483 38343 ft 429 kts 286°
2026-05-01 14:14 50.24771 11.97416 38347 ft 428 kts 286°
2026-05-01 14:15 50.26171 11.88442 38349 ft 428 kts 286°
2026-05-01 14:15 50.27573 11.79398 38349 ft 428 kts 286°
2026-05-01 14:16 50.28958 11.70401 38348 ft 427 kts 286°
2026-05-01 14:16 50.30339 11.61374 38335 ft 427 kts 286°
2026-05-01 14:17 50.31699 11.52337 38330 ft 427 kts 285°
2026-05-01 14:17 50.33042 11.43283 38317 ft 427 kts 285°
2026-05-01 14:18 50.34358 11.34383 38308 ft 427 kts 285°
2026-05-01 14:18 50.35460 11.26877 38307 ft 427 kts 284°
2026-05-01 14:19 50.37010 11.16293 38304 ft 427 kts 284°
2026-05-01 14:19 50.38332 11.07218 38305 ft 427 kts 284°
2026-05-01 14:20 50.40297 10.93619 38303 ft 427 kts 284°
2026-05-01 14:21 50.41598 10.84549 38297 ft 426 kts 284°
2026-05-01 14:21 50.42886 10.75504 38295 ft 426 kts 284°
2026-05-01 14:22 50.44812 10.62085 38296 ft 426 kts 284°
2026-05-01 14:22 50.46116 10.53298 38299 ft 425 kts 287°
2026-05-01 14:23 50.47937 10.44494 38300 ft 423 kts 293°
2026-05-01 14:23 50.50319 10.36072 38296 ft 423 kts 297°
2026-05-01 14:24 50.52827 10.27756 38298 ft 423 kts 296°
2026-05-01 14:24 50.55316 10.19464 37942 ft 415 kts 296°
2026-05-01 14:25 50.56536 10.15381 37660 ft 413 kts 296°
2026-05-01 14:25 50.57753 10.11304 37380 ft 413 kts 296°
2026-05-01 14:25 50.58978 10.07189 37092 ft 413 kts 296°
2026-05-01 14:25 50.60197 10.03084 36811 ft 414 kts 296°
2026-05-01 14:26 50.61373 9.99120 36534 ft 414 kts 296°
2026-05-01 14:26 50.63800 9.90913 35970 ft 416 kts 296°
2026-05-01 14:26 50.65020 9.86779 35683 ft 417 kts 296°
2026-05-01 14:27 50.66246 9.82614 35397 ft 418 kts 296°
2026-05-01 14:27 50.67475 9.78438 35111 ft 419 kts 296°
2026-05-01 14:27 50.68698 9.74272 34822 ft 420 kts 296°
2026-05-01 14:28 50.71154 9.65877 34284 ft 422 kts 296°
2026-05-01 14:28 50.72372 9.61699 34033 ft 423 kts 296°
2026-05-01 14:28 50.73660 9.57488 33775 ft 424 kts 297°
2026-05-01 14:28 50.74974 9.53365 33430 ft 425 kts 298°
2026-05-01 14:29 50.76308 9.49199 32949 ft 426 kts 298°
2026-05-01 14:29 50.77644 9.45022 32337 ft 427 kts 298°
2026-05-01 14:30 50.81567 9.32691 30201 ft 434 kts 297°
2026-05-01 14:30 50.82913 9.28444 29434 ft 435 kts 297°
2026-05-01 14:30 50.84262 9.24180 28908 ft 430 kts 297°
2026-05-01 14:31 50.86908 9.15787 27903 ft 420 kts 297°
2026-05-01 14:31 50.88198 9.11687 27402 ft 415 kts 297°
2026-05-01 14:31 50.89479 9.07605 26895 ft 411 kts 297°
2026-05-01 14:31 50.90731 9.03614 26401 ft 407 kts 297°
2026-05-01 14:32 50.91933 8.99771 25927 ft 403 kts 297°
2026-05-01 14:32 50.93157 8.95854 25436 ft 399 kts 297°
2026-05-01 14:32 50.94349 8.92039 24952 ft 396 kts 297°
2026-05-01 14:32 50.95589 8.88154 24451 ft 393 kts 298°
2026-05-01 14:33 50.96838 8.84286 23966 ft 390 kts 298°
2026-05-01 14:33 50.98061 8.80489 23490 ft 388 kts 298°
2026-05-01 14:33 50.99287 8.76668 23008 ft 385 kts 298°
2026-05-01 14:33 51.00465 8.72914 22541 ft 383 kts 294°
2026-05-01 14:34 51.01204 8.68949 22074 ft 381 kts 279°
2026-05-01 14:34 51.01288 8.64711 21604 ft 379 kts 264°
2026-05-01 14:34 51.00880 8.60560 21145 ft 377 kts 259°
2026-05-01 14:34 51.00401 8.56527 20684 ft 375 kts 259°
2026-05-01 14:35 50.99941 8.52676 20246 ft 374 kts 259°
2026-05-01 14:35 50.99468 8.48628 19780 ft 373 kts 259°
2026-05-01 14:35 50.99010 8.44607 19326 ft 372 kts 259°
2026-05-01 14:35 50.98571 8.40716 18884 ft 370 kts 259°
2026-05-01 14:36 50.98118 8.36690 18421 ft 369 kts 259°
2026-05-01 14:36 50.97673 8.32736 17963 ft 368 kts 259°
2026-05-01 14:36 50.97383 8.28719 17502 ft 368 kts 266°
2026-05-01 14:36 50.97438 8.24784 17058 ft 367 kts 274°
2026-05-01 14:37 50.97763 8.20870 16608 ft 367 kts 278°
2026-05-01 14:37 50.98159 8.16967 16151 ft 366 kts 278°
2026-05-01 14:37 50.98568 8.13020 15702 ft 365 kts 278°
2026-05-01 14:37 50.98968 8.09092 15238 ft 364 kts 278°
2026-05-01 14:38 50.99356 8.05194 14784 ft 363 kts 278°
2026-05-01 14:38 50.99742 8.01240 14327 ft 362 kts 277°
2026-05-01 14:38 51.00110 7.97430 13888 ft 360 kts 277°
2026-05-01 14:38 51.00485 7.93531 13441 ft 358 kts 277°
2026-05-01 14:39 51.00852 7.89681 12996 ft 356 kts 277°
2026-05-01 14:39 51.01218 7.85843 12554 ft 353 kts 277°
2026-05-01 14:39 51.01552 7.82315 12136 ft 351 kts 277°
2026-05-01 14:39 51.01917 7.78465 11674 ft 348 kts 277°
2026-05-01 14:40 51.02276 7.74652 11214 ft 346 kts 277°
2026-05-01 14:40 51.02627 7.70923 10778 ft 343 kts 277°
2026-05-01 14:40 51.02969 7.67266 10545 ft 332 kts 277°
2026-05-01 14:40 51.03302 7.63702 10422 ft 319 kts 277°
2026-05-01 14:41 51.03616 7.60320 10299 ft 306 kts 276°
2026-05-01 14:41 51.03919 7.57041 10027 ft 301 kts 276°
2026-05-01 14:41 51.04222 7.53752 9655 ft 300 kts 276°
2026-05-01 14:41 51.04520 7.50493 9288 ft 298 kts 276°
2026-05-01 14:42 51.04816 7.47266 8939 ft 296 kts 276°
2026-05-01 14:42 51.05107 7.44079 8594 ft 294 kts 276°
2026-05-01 14:42 51.05401 7.40857 8252 ft 291 kts 276°
2026-05-01 14:42 51.05668 7.37916 7934 ft 289 kts 276°
2026-05-01 14:43 51.05950 7.34799 7594 ft 287 kts 275°
2026-05-01 14:43 51.06169 7.32371 7330 ft 286 kts 275°
2026-05-01 14:43 51.06448 7.29272 6993 ft 284 kts 275°
2026-05-01 14:44 51.06866 7.24613 6486 ft 281 kts 275°
2026-05-01 14:44 51.07510 7.17384 5694 ft 276 kts 275°
2026-05-01 14:44 51.07752 7.14442 5368 ft 274 kts 272°
2026-05-01 14:45 51.07829 7.11534 5040 ft 272 kts 266°
2026-05-01 14:45 51.07643 7.05764 4464 ft 266 kts 263°
2026-05-01 14:45 51.07531 7.02881 4379 ft 254 kts 263°
2026-05-01 14:46 51.07427 7.00133 4294 ft 243 kts 263°
2026-05-01 14:46 51.06493 6.95644 3989 ft 221 kts 224°
2026-05-01 14:46 51.05461 6.93908 3715 ft 221 kts 221°
2026-05-01 14:47 51.04346 6.92320 3417 ft 218 kts 204°
2026-05-01 14:47 51.02941 6.91876 3171 ft 206 kts 166°
2026-05-01 14:47 51.01691 6.92873 3190 ft 203 kts 141°
2026-05-01 14:48 50.99778 6.95847 3174 ft 202 kts 135°
2026-05-01 14:48 50.98808 6.97348 2972 ft 203 kts 137°
2026-05-01 14:48 50.96779 7.00319 2458 ft 201 kts 138°
2026-05-01 14:49 50.94728 7.03264 1946 ft 198 kts 137°
2026-05-01 14:49 50.92836 7.05990 1521 ft 167 kts 137°
2026-05-01 14:50 50.91483 7.07941 1145 ft 147 kts 136°
2026-05-01 14:50 50.89872 7.10248 707 ft 119 kts 136°
2026-05-01 14:51 50.89271 7.11130 560 ft 118 kts 139°
2026-05-01 14:51 50.88056 7.12890 302 ft 118 kts 138°
2026-05-01 14:52 50.87096 7.14281 258 ft 54 kts 135°
2026-05-01 14:52 50.86884 7.14591 267 ft 34 kts 137°
2026-05-01 14:52 50.86695 7.14633 271 ft 15 kts 245°
2026-05-01 14:53 50.86643 7.14468 268 ft 17 kts 245°
2026-05-01 14:53 50.86630 7.14282 266 ft 18 kts 304°
2026-05-01 14:53 50.86736 7.14141 261 ft 21 kts 332°
2026-05-01 14:53 50.86855 7.14023 257 ft 21 kts 317°
2026-05-01 14:54 50.86969 7.13855 253 ft 23 kts 317°
2026-05-01 14:54 50.87095 7.13676 248 ft 25 kts 317°
2026-05-01 14:54 50.87229 7.13476 244 ft 27 kts 316°
2026-05-01 14:54 50.87366 7.13282 241 ft 23 kts 317°
2026-05-01 14:55 50.87481 7.13115 239 ft 23 kts 317°
2026-05-01 14:55 50.87603 7.12936 237 ft 24 kts 316°
2026-05-01 14:55 50.87727 7.12758 235 ft 23 kts 317°
2026-05-01 14:55 50.87849 7.12615 233 ft 16 kts 344°
2026-05-01 14:56 50.87950 7.12617 233 ft 14 kts 346°
2026-05-01 14:56 50.88023 7.12507 232 ft 16 kts 294°
2026-05-01 14:56 50.88088 7.12345 230 ft 18 kts 307°
2026-05-01 14:56 50.88166 7.12175 228 ft 18 kts 306°
2026-05-01 14:57 50.88244 7.12005 225 ft 16 kts 306°
2026-05-01 14:57 50.88302 7.11805 223 ft 6 kts 254°
2026-05-01 14:57 50.88318 7.11747 222 ft 8 kts 340°
2026-05-01 14:58 50.88341 7.11735 222 ft 0 kts 342°
2026-05-01 14:58 50.88342 7.11735 222 ft 0 kts 342°